Time,TemperatureF,DewpointF,PressureIn,WindDirection,WindDirectionDegrees,WindSpeedMPH,WindSpeedGustMPH,Humidity,HourlyPrecipIn,Conditions,Clouds,dailyrainin,SoftwareType,DateUTC
2013-01-15 00:04:00,18.5,7.3,29.63,South,181,0.0,0.0,61,0.00,,---,0.00,VWS V12.08,2013-01-15 06:04:00,
2013-01-15 00:09:00,18.4,7.2,29.63,South,181,0.0,0.0,61,0.00,,---,0.00,VWS V12.08,2013-01-15 06:09:00,
2013-01-15 00:14:00,18.4,7.6,29.64,South,181,0.0,0.0,62,0.00,,---,0.00,VWS V12.08,2013-01-15 06:14:00,
2013-01-15 00:19:00,18.4,7.6,29.64,South,181,0.0,0.0,62,0.00,,---,0.00,VWS V12.08,2013-01-15 06:19:00,
2013-01-15 00:24:00,18.4,7.6,29.63,South,181,0.0,0.0,62,0.00,,---,0.00,VWS V12.08,2013-01-15 06:24:00,
2013-01-15 00:29:00,18.4,7.6,29.63,South,181,0.0,0.0,62,0.00,,---,0.00,VWS V12.08,2013-01-15 06:29:00,
2013-01-15 00:34:00,18.4,7.6,29.64,South,181,0.0,0.0,62,0.00,,---,0.00,VWS V12.08,2013-01-15 06:34:00,
2013-01-15 00:39:00,18.4,7.6,29.64,South,181,0.0,0.0,62,0.00,,---,0.00,VWS V12.08,2013-01-15 06:39:00,
2013-01-15 00:44:00,18.4,7.6,29.63,South,181,0.0,0.0,62,0.00,,---,0.00,VWS V12.08,2013-01-15 06:44:00,
2013-01-15 00:49:00,18.5,8.0,29.63,South,181,0.0,0.0,63,0.00,,---,0.00,VWS V12.08,2013-01-15 06:49:00,
2013-01-15 00:54:00,18.5,8.0,29.64,South,181,0.0,0.0,63,0.00,,---,0.00,VWS V12.08,2013-01-15 06:54:00,
2013-01-15 00:59:00,18.5,8.0,29.63,South,181,0.0,0.0,63,0.00,,---,0.00,VWS V12.08,2013-01-15 06:59:00,
2013-01-15 01:04:00,18.6,8.1,29.63,South,181,0.0,0.0,63,0.00,,---,0.00,VWS V12.08,2013-01-15 07:04:00,
2013-01-15 01:09:00,18.5,8.0,29.64,South,181,0.0,0.0,63,0.00,,---,0.00,VWS V12.08,2013-01-15 07:09:00,
2013-01-15 01:14:00,18.6,8.1,29.64,South,181,0.0,0.0,63,0.00,,---,0.00,VWS V12.08,2013-01-15 07:14:00,
2013-01-15 01:19:00,18.5,8.0,29.63,South,181,0.0,0.0,63,0.00,,---,0.00,VWS V12.08,2013-01-15 07:19:00,
2013-01-15 01:24:00,18.6,8.1,29.63,South,181,0.0,0.0,63,0.00,,---,0.00,VWS V12.08,2013-01-15 07:24:00,
2013-01-15 01:29:00,18.6,8.1,29.63,SSE,167,0.0,0.0,63,0.00,,---,0.00,VWS V12.08,2013-01-15 07:29:00,
2013-01-15 01:34:00,18.5,8.4,29.62,SSE,167,0.0,0.0,64,0.00,,---,0.00,VWS V12.08,2013-01-15 07:34:00,
2013-01-15 01:39:00,18.5,8.4,29.62,SSE,168,0.0,0.0,64,0.00,,---,0.00,VWS V12.08,2013-01-15 07:39:00,
2013-01-15 01:44:00,18.5,8.4,29.62,SSE,168,0.0,0.0,64,0.00,,---,0.00,VWS V12.08,2013-01-15 07:44:00,
2013-01-15 01:49:00,18.5,8.4,29.62,South,169,0.0,0.0,64,0.00,,---,0.00,VWS V12.08,2013-01-15 07:49:00,
2013-01-15 01:54:00,18.5,8.4,29.62,South,169,0.0,0.0,64,0.00,,---,0.00,VWS V12.08,2013-01-15 07:54:00,
2013-01-15 01:59:00,18.5,8.4,29.62,South,169,0.0,0.0,64,0.00,,---,0.00,VWS V12.08,2013-01-15 07:59:00,
2013-01-15 02:04:00,18.5,8.4,29.62,South,169,0.0,0.0,64,0.00,,---,0.00,VWS V12.08,2013-01-15 08:04:00,
2013-01-15 02:09:00,18.5,8.4,29.62,South,169,0.0,0.0,64,0.00,,---,0.00,VWS V12.08,2013-01-15 08:09:00,
2013-01-15 02:14:00,18.5,8.4,29.62,South,169,0.0,0.0,64,0.00,,---,0.00,VWS V12.08,2013-01-15 08:14:00,
2013-01-15 02:19:00,18.5,8.4,29.62,South,169,0.0,0.0,64,0.00,,---,0.00,VWS V12.08,2013-01-15 08:19:00,
2013-01-15 02:24:00,18.6,8.8,29.62,South,169,0.0,0.0,65,0.00,,---,0.00,VWS V12.08,2013-01-15 08:24:00,
2013-01-15 02:29:00,18.6,8.5,29.62,South,169,0.0,0.0,64,0.00,,---,0.00,VWS V12.08,2013-01-15 08:29:00,
2013-01-15 02:34:00,18.7,8.9,29.62,South,169,0.0,0.0,65,0.00,,---,0.00,VWS V12.08,2013-01-15 08:34:00,
2013-01-15 02:39:00,18.8,8.6,29.62,South,170,0.0,0.0,64,0.00,,---,0.00,VWS V12.08,2013-01-15 08:39:00,
2013-01-15 02:44:00,18.8,9.0,29.63,South,170,0.0,0.0,65,0.00,,---,0.00,VWS V12.08,2013-01-15 08:44:00,
2013-01-15 02:49:00,18.9,9.1,29.62,SW,227,0.0,0.0,65,0.00,,---,0.00,VWS V12.08,2013-01-15 08:49:00,
2013-01-15 02:55:00,19.0,9.2,29.62,SW,227,0.0,0.0,65,0.00,,---,0.00,VWS V12.08,2013-01-15 08:55:00,
2013-01-15 03:00:00,19.0,9.2,29.62,SW,227,0.0,0.0,65,0.00,,---,0.00,VWS V12.08,2013-01-15 09:00:00,
2013-01-15 03:05:00,19.0,9.2,29.61,SW,227,0.0,0.0,65,0.00,,---,0.00,VWS V12.08,2013-01-15 09:05:00,
2013-01-15 03:10:00,19.0,8.8,29.62,SW,227,0.0,0.0,64,0.00,,---,0.00,VWS V12.08,2013-01-15 09:10:00,
2013-01-15 03:15:00,19.0,9.2,29.62,SW,227,0.0,0.0,65,0.00,,---,0.00,VWS V12.08,2013-01-15 09:15:00,
2013-01-15 03:20:00,19.1,9.3,29.62,SW,227,0.0,0.0,65,0.00,,---,0.00,VWS V12.08,2013-01-15 09:20:00,
2013-01-15 03:25:00,19.1,9.3,29.62,SW,227,0.0,0.0,65,0.00,,---,0.00,VWS V12.08,2013-01-15 09:25:00,
2013-01-15 03:30:00,19.1,9.3,29.62,SW,227,0.0,0.0,65,0.00,,---,0.00,VWS V12.08,2013-01-15 09:30:00,
2013-01-15 03:36:00,19.1,9.3,29.61,SW,227,0.0,0.0,65,0.00,,---,0.00,VWS V12.08,2013-01-15 09:36:00,
2013-01-15 03:41:00,19.1,9.3,29.61,SW,227,0.0,0.0,65,0.00,,---,0.00,VWS V12.08,2013-01-15 09:41:00,
2013-01-15 03:46:00,19.0,9.2,29.61,SW,227,0.0,0.0,65,0.00,,---,0.00,VWS V12.08,2013-01-15 09:46:00,
2013-01-15 03:51:00,19.0,9.2,29.61,SW,227,0.0,0.0,65,0.00,,---,0.00,VWS V12.08,2013-01-15 09:51:00,
2013-01-15 03:57:00,19.0,9.2,29.60,SW,227,0.0,0.0,65,0.00,,---,0.00,VWS V12.08,2013-01-15 09:57:00,
2013-01-15 04:02:00,19.0,9.2,29.60,SW,227,0.0,0.0,65,0.00,,---,0.00,VWS V12.08,2013-01-15 10:02:00,
2013-01-15 04:07:00,18.9,9.1,29.60,SW,227,0.0,0.0,65,0.00,,---,0.00,VWS V12.08,2013-01-15 10:07:00,
2013-01-15 04:12:00,18.9,9.1,29.61,SW,227,0.0,0.0,65,0.00,,---,0.00,VWS V12.08,2013-01-15 10:12:00,
2013-01-15 04:17:00,18.7,9.2,29.60,SW,227,0.0,0.0,66,0.00,,---,0.00,VWS V12.08,2013-01-15 10:17:00,
2013-01-15 04:23:00,18.6,9.1,29.60,SW,227,0.0,0.0,66,0.00,,---,0.00,VWS V12.08,2013-01-15 10:23:00,
2013-01-15 04:28:00,18.4,9.0,29.60,SW,227,0.0,0.0,66,0.00,,---,0.00,VWS V12.08,2013-01-15 10:28:00,
2013-01-15 04:33:00,18.3,8.9,29.60,SW,227,0.0,0.0,66,0.00,,---,0.00,VWS V12.08,2013-01-15 10:33:00,
2013-01-15 04:38:00,18.1,9.0,29.59,SW,227,0.0,0.0,67,0.00,,---,0.00,VWS V12.08,2013-01-15 10:38:00,
2013-01-15 04:43:00,18.1,9.0,29.59,SW,227,0.0,0.0,67,0.00,,---,0.00,VWS V12.08,2013-01-15 10:43:00,
2013-01-15 04:48:00,18.0,8.9,29.59,SW,227,0.0,0.0,67,0.00,,---,0.00,VWS V12.08,2013-01-15 10:48:00,
2013-01-15 04:54:00,17.8,8.7,29.59,SW,227,0.0,0.0,67,0.00,,---,0.00,VWS V12.08,2013-01-15 10:54:00,
2013-01-15 05:00:00,17.7,8.9,29.59,SW,227,0.0,0.0,68,0.00,,---,0.00,VWS V12.08,2013-01-15 11:00:00,
2013-01-15 05:06:00,17.8,9.0,29.58,SW,227,0.0,0.0,68,0.00,,---,0.00,VWS V12.08,2013-01-15 11:06:00,
2013-01-15 05:11:00,17.8,9.0,29.58,SW,227,0.0,0.0,68,0.00,,---,0.00,VWS V12.08,2013-01-15 11:11:00,
2013-01-15 05:17:00,17.7,8.9,29.58,SW,227,0.0,0.0,68,0.00,,---,0.00,VWS V12.08,2013-01-15 11:17:00,
2013-01-15 05:23:00,17.7,8.9,29.58,SW,227,0.0,0.0,68,0.00,,---,0.00,VWS V12.08,2013-01-15 11:23:00,
2013-01-15 05:28:00,17.7,8.9,29.58,SW,227,0.0,0.0,68,0.00,,---,0.00,VWS V12.08,2013-01-15 11:28:00,
2013-01-15 05:34:00,17.6,8.9,29.58,SW,227,0.0,0.0,68,0.00,,---,0.00,VWS V12.08,2013-01-15 11:34:00,
2013-01-15 05:39:00,17.5,9.1,29.58,SW,227,0.0,0.0,69,0.00,,---,0.00,VWS V12.08,2013-01-15 11:39:00,
2013-01-15 05:45:00,17.3,8.9,29.58,SW,227,0.0,0.0,69,0.00,,---,0.00,VWS V12.08,2013-01-15 11:45:00,
2013-01-15 05:54:00,17.2,8.8,29.58,SW,227,0.0,0.0,69,0.00,,---,0.00,VWS V12.08,2013-01-15 11:54:00,
2013-01-15 06:00:00,17.1,8.7,29.59,SW,227,0.0,0.0,69,0.00,,---,0.00,VWS V12.08,2013-01-15 12:00:00,
2013-01-15 06:06:00,17.1,8.7,29.59,SW,227,0.0,0.0,69,0.00,,---,0.00,VWS V12.08,2013-01-15 12:06:00,
2013-01-15 06:11:00,17.0,8.6,29.59,SW,227,0.0,0.0,69,0.00,,---,0.00,VWS V12.08,2013-01-15 12:11:00,
2013-01-15 06:16:00,16.9,8.5,29.59,SW,227,0.0,0.0,69,0.00,,---,0.00,VWS V12.08,2013-01-15 12:16:00,
2013-01-15 06:21:00,16.6,8.2,29.60,SW,227,0.0,0.0,69,0.00,,---,0.00,VWS V12.08,2013-01-15 12:21:00,
2013-01-15 06:26:00,16.4,8.0,29.60,SW,227,0.0,0.0,69,0.00,,---,0.00,VWS V12.08,2013-01-15 12:26:00,
2013-01-15 06:31:00,16.2,8.1,29.60,SW,227,0.0,0.0,70,0.00,,---,0.00,VWS V12.08,2013-01-15 12:31:00,
2013-01-15 06:36:00,16.1,8.1,29.60,SW,227,0.0,0.0,70,0.00,,---,0.00,VWS V12.08,2013-01-15 12:36:00,
2013-01-15 06:41:00,15.9,7.9,29.59,SW,227,0.0,0.0,70,0.00,,---,0.00,VWS V12.08,2013-01-15 12:41:00,
2013-01-15 06:46:00,15.9,8.2,29.60,SW,227,0.0,0.0,71,0.00,,---,0.00,VWS V12.08,2013-01-15 12:46:00,
2013-01-15 06:51:00,15.8,8.1,29.60,SW,227,0.0,0.0,71,0.00,,---,0.00,VWS V12.08,2013-01-15 12:51:00,
2013-01-15 06:56:00,15.7,8.0,29.60,SW,227,0.0,0.0,71,0.00,,---,0.00,VWS V12.08,2013-01-15 12:56:00,
2013-01-15 07:01:00,15.7,8.0,29.59,SW,227,0.0,0.0,71,0.00,,---,0.00,VWS V12.08,2013-01-15 13:01:00,
2013-01-15 07:06:00,15.8,8.4,29.59,SW,227,0.0,0.0,72,0.00,,---,0.00,VWS V12.08,2013-01-15 13:06:00,
2013-01-15 07:11:00,15.8,8.1,29.59,SW,227,0.0,0.0,71,0.00,,---,0.00,VWS V12.08,2013-01-15 13:11:00,
2013-01-15 07:16:00,15.8,8.1,29.60,SW,227,0.0,0.0,71,0.00,,---,0.00,VWS V12.08,2013-01-15 13:16:00,
2013-01-15 07:21:00,15.7,8.0,29.59,SW,227,0.0,0.0,71,0.00,,---,0.00,VWS V12.08,2013-01-15 13:21:00,
2013-01-15 07:27:00,15.6,7.9,29.60,SW,227,0.0,0.0,71,0.00,,---,0.00,VWS V12.08,2013-01-15 13:27:00,
2013-01-15 07:32:00,15.6,7.9,29.60,SW,227,0.0,0.0,71,0.00,,---,0.00,VWS V12.08,2013-01-15 13:32:00,
2013-01-15 07:37:00,15.6,8.2,29.60,SW,227,0.0,0.0,72,0.00,,---,0.00,VWS V12.08,2013-01-15 13:37:00,
2013-01-15 07:42:00,15.6,8.2,29.61,SW,227,0.0,0.0,72,0.00,,---,0.00,VWS V12.08,2013-01-15 13:42:00,
2013-01-15 07:47:00,15.6,8.2,29.60,SW,227,0.0,0.0,72,0.00,,---,0.00,VWS V12.08,2013-01-15 13:47:00,
2013-01-15 07:52:00,15.7,8.3,29.61,SW,227,0.0,0.0,72,0.00,,---,0.00,VWS V12.08,2013-01-15 13:52:00,
2013-01-15 07:57:00,15.8,8.4,29.61,SW,227,0.0,0.0,72,0.00,,---,0.00,VWS V12.08,2013-01-15 13:57:00,
2013-01-15 08:02:00,15.9,8.5,29.61,SW,227,0.0,0.0,72,0.00,,---,0.00,VWS V12.08,2013-01-15 14:02:00,
2013-01-15 08:07:00,16.0,8.6,29.61,SW,227,0.0,0.0,72,0.00,,---,0.00,VWS V12.08,2013-01-15 14:07:00,
2013-01-15 08:12:00,16.2,8.8,29.61,SW,227,0.0,0.0,72,0.00,,---,0.00,VWS V12.08,2013-01-15 14:12:00,
2013-01-15 08:17:00,16.2,8.8,29.61,SW,227,0.0,0.0,72,0.00,,---,0.00,VWS V12.08,2013-01-15 14:17:00,
2013-01-15 08:22:00,16.3,8.9,29.61,SW,227,0.0,0.0,72,0.00,,---,0.00,VWS V12.08,2013-01-15 14:22:00,
2013-01-15 08:27:00,16.5,9.1,29.61,SW,227,0.0,0.0,72,0.00,,---,0.00,VWS V12.08,2013-01-15 14:27:00,
2013-01-15 08:32:00,16.7,8.9,29.61,SW,227,0.0,0.0,71,0.00,,---,0.00,VWS V12.08,2013-01-15 14:32:00,
2013-01-15 08:37:00,16.9,9.1,29.61,SW,227,0.0,0.0,71,0.00,,---,0.00,VWS V12.08,2013-01-15 14:37:00,
2013-01-15 08:42:00,17.3,9.5,29.61,SW,227,0.0,0.0,71,0.00,,---,0.00,VWS V12.08,2013-01-15 14:42:00,
2013-01-15 08:47:00,17.6,9.5,29.62,SW,227,0.0,0.0,70,0.00,,---,0.00,VWS V12.08,2013-01-15 14:47:00,
2013-01-15 08:52:00,18.0,9.9,29.61,SW,228,0.0,0.0,70,0.00,,---,0.00,VWS V12.08,2013-01-15 14:52:00,
2013-01-15 08:57:00,18.4,9.9,29.62,SW,228,0.0,0.0,69,0.00,,---,0.00,VWS V12.08,2013-01-15 14:57:00,
2013-01-15 09:02:00,18.8,10.3,29.62,SW,228,0.0,0.0,69,0.00,,---,0.00,VWS V12.08,2013-01-15 15:02:00,
2013-01-15 09:07:00,19.3,10.5,29.62,SW,228,0.0,0.0,68,0.00,,---,0.00,VWS V12.08,2013-01-15 15:07:00,
2013-01-15 09:12:00,20.0,10.8,29.61,SW,228,0.0,0.0,67,0.00,,---,0.00,VWS V12.08,2013-01-15 15:12:00,
2013-01-15 09:17:00,20.6,11.4,29.62,SW,228,0.0,0.0,67,0.00,,---,0.00,VWS V12.08,2013-01-15 15:17:00,
2013-01-15 09:22:00,20.9,11.0,29.61,SW,230,0.0,0.0,65,0.00,,---,0.00,VWS V12.08,2013-01-15 15:22:00,
2013-01-15 09:27:00,21.0,11.1,29.61,SW,230,0.0,0.0,65,0.00,,---,0.00,VWS V12.08,2013-01-15 15:27:00,
2013-01-15 09:32:00,21.6,11.3,29.61,SW,230,0.0,0.0,64,0.00,,---,0.00,VWS V12.08,2013-01-15 15:32:00,
2013-01-15 09:37:00,21.7,11.4,29.60,SW,234,0.0,0.0,64,0.00,,---,0.00,VWS V12.08,2013-01-15 15:37:00,
2013-01-15 09:42:00,22.1,11.8,29.60,SW,235,0.0,0.0,64,0.00,,---,0.00,VWS V12.08,2013-01-15 15:42:00,
2013-01-15 09:47:00,22.5,11.8,29.60,WSW,238,0.0,0.0,63,0.00,,---,0.00,VWS V12.08,2013-01-15 15:47:00,
2013-01-15 09:52:00,22.9,12.2,29.59,WSW,238,0.0,0.0,63,0.00,,---,0.00,VWS V12.08,2013-01-15 15:52:00,
2013-01-15 09:57:00,23.1,12.0,29.60,WSW,244,0.0,0.0,62,0.00,,---,0.00,VWS V12.08,2013-01-15 15:57:00,
2013-01-15 10:02:00,23.2,11.8,29.59,WSW,248,0.0,0.0,61,0.00,,---,0.00,VWS V12.08,2013-01-15 16:02:00,
2013-01-15 10:07:00,23.4,12.3,29.59,WSW,256,0.0,0.0,62,0.00,,---,0.00,VWS V12.08,2013-01-15 16:07:00,
2013-01-15 10:12:00,23.6,12.1,29.59,WSW,258,0.0,0.0,61,0.00,,---,0.00,VWS V12.08,2013-01-15 16:12:00,
2013-01-15 10:17:00,24.1,12.6,29.58,WSW,258,0.0,0.0,61,0.00,,---,0.00,VWS V12.08,2013-01-15 16:17:00,
2013-01-15 10:22:00,24.6,13.1,29.58,WSW,258,0.0,0.0,61,0.00,,---,0.00,VWS V12.08,2013-01-15 16:22:00,
2013-01-15 10:28:00,25.3,13.4,29.57,WSW,258,0.0,0.0,60,0.00,,---,0.00,VWS V12.08,2013-01-15 16:28:00,
2013-01-15 10:33:00,25.9,13.6,29.58,WSW,258,0.0,0.0,59,0.00,,---,0.00,VWS V12.08,2013-01-15 16:33:00,
2013-01-15 10:38:00,26.4,13.6,29.58,WNW,296,0.0,0.0,58,0.00,,---,0.00,VWS V12.08,2013-01-15 16:38:00,
2013-01-15 10:43:00,26.4,13.2,29.57,WNW,295,0.0,0.0,57,0.00,,---,0.00,VWS V12.08,2013-01-15 16:43:00,
2013-01-15 10:48:00,26.8,13.6,29.58,WNW,296,0.0,0.0,57,0.00,,---,0.00,VWS V12.08,2013-01-15 16:48:00,
2013-01-15 10:53:00,27.1,13.1,29.58,WNW,296,0.0,1.0,55,0.00,,---,0.00,VWS V12.08,2013-01-15 16:53:00,
2013-01-15 10:58:00,27.4,13.4,29.57,WNW,287,0.0,1.0,55,0.00,,---,0.00,VWS V12.08,2013-01-15 16:58:00,
2013-01-15 11:03:00,27.7,12.8,29.58,South,189,0.0,0.0,53,0.00,,---,0.00,VWS V12.08,2013-01-15 17:03:00,
2013-01-15 11:08:00,28.0,12.7,29.58,SSE,161,0.0,0.0,52,0.00,,---,0.00,VWS V12.08,2013-01-15 17:08:00,
2013-01-15 11:13:00,27.9,12.1,29.58,WSW,239,0.0,0.0,51,0.00,,---,0.00,VWS V12.08,2013-01-15 17:13:00,
2013-01-15 11:18:00,27.8,12.0,29.58,SW,223,0.0,0.0,51,0.00,,---,0.00,VWS V12.08,2013-01-15 17:18:00,
2013-01-15 11:23:00,27.8,12.0,29.58,SSE,166,0.0,0.0,51,0.00,,---,0.00,VWS V12.08,2013-01-15 17:23:00,
2013-01-15 11:28:00,28.1,11.9,29.57,SW,235,0.0,0.0,50,0.00,,---,0.00,VWS V12.08,2013-01-15 17:28:00,
2013-01-15 11:33:00,28.3,11.6,29.57,South,180,0.0,0.0,49,0.00,,---,0.00,VWS V12.08,2013-01-15 17:33:00,
2013-01-15 11:40:00,28.8,12.5,29.56,WSW,239,0.0,0.0,50,0.00,,---,0.00,VWS V12.08,2013-01-15 17:40:00,
2013-01-15 11:45:00,29.0,12.7,29.56,WSW,239,0.0,0.0,50,0.00,,---,0.00,VWS V12.08,2013-01-15 17:45:00,
2013-01-15 11:51:00,28.9,12.1,29.56,WSW,238,0.0,0.0,49,0.00,,---,0.00,VWS V12.08,2013-01-15 17:51:00,
2013-01-15 11:56:00,29.2,12.4,29.55,South,177,0.0,0.0,49,0.00,,---,0.00,VWS V12.08,2013-01-15 17:56:00,
2013-01-15 12:01:00,29.1,12.8,29.55,South,184,0.0,0.0,50,0.00,,---,0.00,VWS V12.08,2013-01-15 18:01:00,
2013-01-15 12:06:00,29.5,13.6,29.55,SW,230,0.0,0.0,51,0.00,,---,0.00,VWS V12.08,2013-01-15 18:06:00,
2013-01-15 12:11:00,29.6,13.3,29.54,South,187,0.0,0.0,50,0.00,,---,0.00,VWS V12.08,2013-01-15 18:11:00,
2013-01-15 12:16:00,29.5,13.2,29.54,SW,230,0.0,0.0,50,0.00,,---,0.00,VWS V12.08,2013-01-15 18:16:00,
2013-01-15 12:21:00,29.8,13.4,29.54,SSE,166,0.0,1.0,50,0.00,,---,0.00,VWS V12.08,2013-01-15 18:21:00,
2013-01-15 12:27:00,29.9,12.6,29.53,SSW,211,0.0,1.0,48,0.00,,---,0.00,VWS V12.08,2013-01-15 18:27:00,
2013-01-15 12:32:00,30.1,12.3,29.53,West,267,0.0,0.0,47,0.00,,---,0.00,VWS V12.08,2013-01-15 18:32:00,
2013-01-15 12:37:00,29.9,11.6,29.53,SSW,201,0.0,0.0,46,0.00,,---,0.00,VWS V12.08,2013-01-15 18:37:00,
2013-01-15 12:42:00,30.3,11.0,29.52,SSW,192,0.0,1.0,44,0.00,,---,0.00,VWS V12.08,2013-01-15 18:42:00,
2013-01-15 12:47:00,30.4,10.6,29.51,SE,127,0.0,1.0,43,0.00,,---,0.00,VWS V12.08,2013-01-15 18:47:00,
2013-01-15 12:52:00,30.3,10.0,29.52,SW,235,0.0,1.0,42,0.00,,---,0.00,VWS V12.08,2013-01-15 18:52:00,
2013-01-15 12:57:00,30.0,9.7,29.51,WSW,241,0.0,1.0,42,0.00,,---,0.00,VWS V12.08,2013-01-15 18:57:00,
2013-01-15 13:02:00,30.0,10.2,29.51,WSW,246,0.0,0.0,43,0.00,,---,0.00,VWS V12.08,2013-01-15 19:02:00,
2013-01-15 13:07:00,30.1,10.3,29.51,SSW,199,0.0,0.0,43,0.00,,---,0.00,VWS V12.08,2013-01-15 19:07:00,
2013-01-15 13:12:00,30.4,10.6,29.51,WSW,238,0.0,0.0,43,0.00,,---,0.00,VWS V12.08,2013-01-15 19:12:00,
2013-01-15 13:17:00,30.7,10.3,29.50,WSW,242,0.0,0.0,42,0.00,,---,0.00,VWS V12.08,2013-01-15 19:17:00,
2013-01-15 13:22:00,30.5,10.7,29.51,SSE,168,0.0,0.0,43,0.00,,---,0.00,VWS V12.08,2013-01-15 19:22:00,
2013-01-15 13:27:00,30.6,9.7,29.50,WSW,245,0.0,1.0,41,0.00,,---,0.00,VWS V12.08,2013-01-15 19:27:00,
2013-01-15 13:32:00,30.2,9.4,29.50,WSW,237,0.0,0.0,41,0.00,,---,0.00,VWS V12.08,2013-01-15 19:32:00,
2013-01-15 13:37:00,30.2,9.4,29.51,SW,235,0.0,0.0,41,0.00,,---,0.00,VWS V12.08,2013-01-15 19:37:00,
2013-01-15 13:42:00,30.4,10.1,29.50,South,187,0.0,0.0,42,0.00,,---,0.00,VWS V12.08,2013-01-15 19:42:00,
2013-01-15 13:47:00,30.5,9.1,29.50,SW,232,0.0,0.0,40,0.00,,---,0.00,VWS V12.08,2013-01-15 19:47:00,
2013-01-15 13:52:00,30.4,9.0,29.50,WSW,243,0.0,0.0,40,0.00,,---,0.00,VWS V12.08,2013-01-15 19:52:00,
2013-01-15 13:59:00,30.8,9.3,29.49,WSW,255,0.0,0.0,40,0.00,,---,0.00,VWS V12.08,2013-01-15 19:59:00,
2013-01-15 14:05:00,31.2,8.6,29.49,WSW,244,0.0,0.0,38,0.00,,---,0.00,VWS V12.08,2013-01-15 20:05:00,
2013-01-15 14:11:00,31.3,9.2,29.49,SSW,202,0.0,1.0,39,0.00,,---,0.00,VWS V12.08,2013-01-15 20:11:00,
2013-01-15 14:16:00,31.5,8.8,29.49,WSW,249,0.0,1.0,38,0.00,,---,0.00,VWS V12.08,2013-01-15 20:16:00,
2013-01-15 14:21:00,31.5,8.8,29.49,SE,127,0.0,1.0,38,0.00,,---,0.00,VWS V12.08,2013-01-15 20:21:00,
2013-01-15 14:26:00,31.7,9.0,29.49,WSW,249,0.0,1.0,38,0.00,,---,0.00,VWS V12.08,2013-01-15 20:26:00,
2013-01-15 14:32:00,32.2,8.9,29.49,West,263,0.0,0.0,37,0.00,,---,0.00,VWS V12.08,2013-01-15 20:32:00,
2013-01-15 14:38:00,32.3,9.0,29.49,WSW,246,0.0,1.0,37,0.00,,---,0.00,VWS V12.08,2013-01-15 20:38:00,
2013-01-15 14:43:00,32.2,8.9,29.49,WSW,237,0.0,1.0,37,0.00,,---,0.00,VWS V12.08,2013-01-15 20:43:00,
2013-01-15 14:48:00,31.9,8.6,29.49,West,260,0.0,1.0,37,0.00,,---,0.00,VWS V12.08,2013-01-15 20:48:00,
2013-01-15 14:58:00,32.0,8.7,29.49,SW,218,0.0,1.0,37,0.00,,---,0.00,VWS V12.08,2013-01-15 20:58:00,
2013-01-15 15:04:00,32.2,8.3,29.49,SW,228,0.0,1.0,36,0.00,,---,0.00,VWS V12.08,2013-01-15 21:04:00,
2013-01-15 15:09:00,32.0,8.1,29.49,WSW,238,0.0,1.0,36,0.00,,---,0.00,VWS V12.08,2013-01-15 21:09:00,
2013-01-15 15:14:00,32.1,8.8,29.49,WSW,246,0.0,1.0,37,0.00,,---,0.00,VWS V12.08,2013-01-15 21:14:00,
2013-01-15 15:19:00,32.2,8.3,29.49,SW,232,0.0,1.0,36,0.00,,---,0.00,VWS V12.08,2013-01-15 21:19:00,
2013-01-15 15:24:00,32.2,8.3,29.49,South,191,0.0,1.0,36,0.00,,---,0.00,VWS V12.08,2013-01-15 21:24:00,
2013-01-15 15:29:00,32.2,7.6,29.49,SW,225,0.0,1.0,35,0.00,,---,0.00,VWS V12.08,2013-01-15 21:29:00,
2013-01-15 15:34:00,32.3,7.7,29.48,SE,140,0.0,0.0,35,0.00,,---,0.00,VWS V12.08,2013-01-15 21:34:00,
2013-01-15 15:39:00,32.2,7.0,29.49,South,174,0.0,1.0,34,0.00,,---,0.00,VWS V12.08,2013-01-15 21:39:00,
2013-01-15 15:44:00,32.3,7.1,29.49,SW,232,0.0,1.0,34,0.00,,---,0.00,VWS V12.08,2013-01-15 21:44:00,
2013-01-15 15:49:00,32.1,7.6,29.48,WSW,252,0.0,1.0,35,0.00,,---,0.00,VWS V12.08,2013-01-15 21:49:00,
2013-01-15 15:55:00,32.3,8.4,29.49,SW,230,0.0,1.0,36,0.00,,---,0.00,VWS V12.08,2013-01-15 21:55:00,
2013-01-15 16:00:00,32.3,8.4,29.49,SW,224,0.0,0.0,36,0.00,,---,0.00,VWS V12.08,2013-01-15 22:00:00,
2013-01-15 16:05:00,32.5,8.5,29.49,WSW,240,0.0,0.0,36,0.00,,---,0.00,VWS V12.08,2013-01-15 22:05:00,
2013-01-15 16:11:00,32.4,8.4,29.48,SSW,204,0.0,0.0,36,0.00,,---,0.00,VWS V12.08,2013-01-15 22:11:00,
2013-01-15 16:16:00,32.2,8.9,29.49,SSW,198,0.0,1.0,37,0.00,,---,0.00,VWS V12.08,2013-01-15 22:16:00,
2013-01-15 16:21:00,32.1,8.2,29.49,SSW,206,0.0,1.0,36,0.00,,---,0.00,VWS V12.08,2013-01-15 22:21:00,
2013-01-15 16:26:00,31.9,8.0,29.48,SW,217,0.0,1.0,36,0.00,,---,0.00,VWS V12.08,2013-01-15 22:26:00,
2013-01-15 16:32:00,31.8,8.5,29.49,SSW,197,0.0,0.0,37,0.00,,---,0.00,VWS V12.08,2013-01-15 22:32:00,
2013-01-15 16:37:00,31.7,9.0,29.48,SSE,154,0.0,0.0,38,0.00,,---,0.00,VWS V12.08,2013-01-15 22:37:00,
2013-01-15 16:42:00,31.5,8.8,29.48,SW,219,0.0,0.0,38,0.00,,---,0.00,VWS V12.08,2013-01-15 22:42:00,
2013-01-15 16:47:00,31.4,9.3,29.48,SW,222,0.0,0.0,39,0.00,,---,0.00,VWS V12.08,2013-01-15 22:47:00,
2013-01-15 16:52:00,31.1,9.1,29.47,SW,219,0.0,0.0,39,0.00,,---,0.00,VWS V12.08,2013-01-15 22:52:00,
2013-01-15 16:58:00,30.9,9.4,29.48,South,169,0.0,0.0,40,0.00,,---,0.00,VWS V12.08,2013-01-15 22:58:00,
2013-01-15 17:03:00,30.5,9.1,29.47,South,185,0.0,0.0,40,0.00,,---,0.00,VWS V12.08,2013-01-15 23:03:00,
2013-01-15 17:08:00,30.3,9.4,29.47,South,182,0.0,0.0,41,0.00,,---,0.00,VWS V12.08,2013-01-15 23:08:00,
2013-01-15 17:13:00,30.1,9.3,29.47,South,183,0.0,0.0,41,0.00,,---,0.00,VWS V12.08,2013-01-15 23:13:00,
2013-01-15 17:18:00,29.9,9.1,29.47,South,183,0.0,0.0,41,0.00,,---,0.00,VWS V12.08,2013-01-15 23:18:00,
2013-01-15 17:23:00,29.6,9.3,29.47,South,183,0.0,0.0,42,0.00,,---,0.00,VWS V12.08,2013-01-15 23:23:00,
2013-01-15 17:29:00,29.3,9.1,29.46,SE,144,0.0,0.0,42,0.00,,---,0.00,VWS V12.08,2013-01-15 23:29:00,
2013-01-15 17:34:00,28.9,8.7,29.46,SE,141,0.0,0.0,42,0.00,,---,0.00,VWS V12.08,2013-01-15 23:34:00,
2013-01-15 17:39:00,28.6,8.9,29.46,SSE,151,0.0,0.0,43,0.00,,---,0.00,VWS V12.08,2013-01-15 23:39:00,
2013-01-15 17:44:00,28.3,8.7,29.46,SSE,150,0.0,0.0,43,0.00,,---,0.00,VWS V12.08,2013-01-15 23:44:00,
2013-01-15 17:50:00,28.1,9.0,29.46,SSE,151,0.0,0.0,44,0.00,,---,0.00,VWS V12.08,2013-01-15 23:50:00,
2013-01-15 17:55:00,27.9,8.8,29.46,SSE,149,0.0,0.0,44,0.00,,---,0.00,VWS V12.08,2013-01-15 23:55:00,
2013-01-15 18:00:00,27.8,9.2,29.46,SE,146,0.0,0.0,45,0.00,,---,0.00,VWS V12.08,2013-01-16 00:00:00,
2013-01-15 18:05:00,27.5,9.0,29.45,SSE,156,0.0,0.0,45,0.00,,---,0.00,VWS V12.08,2013-01-16 00:05:00,
2013-01-15 18:10:00,27.4,9.4,29.45,SSE,161,0.0,0.0,46,0.00,,---,0.00,VWS V12.08,2013-01-16 00:10:00,
2013-01-15 18:15:00,27.2,9.2,29.45,SE,141,0.0,0.0,46,0.00,,---,0.00,VWS V12.08,2013-01-16 00:15:00,
2013-01-15 18:20:00,27.0,9.5,29.45,SSE,163,0.0,0.0,47,0.00,,---,0.00,VWS V12.08,2013-01-16 00:20:00,
2013-01-15 18:25:00,26.9,9.4,29.45,SSE,153,0.0,0.0,47,0.00,,---,0.00,VWS V12.08,2013-01-16 00:25:00,
2013-01-15 18:30:00,26.7,9.2,29.45,SSE,153,0.0,0.0,47,0.00,,---,0.00,VWS V12.08,2013-01-16 00:30:00,
2013-01-15 18:35:00,26.5,9.5,29.45,SSE,160,0.0,0.0,48,0.00,,---,0.00,VWS V12.08,2013-01-16 00:35:00,
2013-01-15 18:40:00,26.3,9.3,29.45,SSE,156,0.0,0.0,48,0.00,,---,0.00,VWS V12.08,2013-01-16 00:40:00,
2013-01-15 18:45:00,26.2,9.2,29.44,SSE,152,0.0,0.0,48,0.00,,---,0.00,VWS V12.08,2013-01-16 00:45:00,
2013-01-15 18:50:00,26.1,9.1,29.44,SE,137,0.0,0.0,48,0.00,,---,0.00,VWS V12.08,2013-01-16 00:50:00,
2013-01-15 18:55:00,25.9,8.9,29.44,SSE,159,0.0,0.0,48,0.00,,---,0.00,VWS V12.08,2013-01-16 00:55:00,
2013-01-15 19:00:00,25.7,9.2,29.44,SE,145,0.0,0.0,49,0.00,,---,0.00,VWS V12.08,2013-01-16 01:00:00,
2013-01-15 19:05:00,25.5,9.0,29.44,SSE,150,0.0,0.0,49,0.00,,---,0.00,VWS V12.08,2013-01-16 01:05:00,
2013-01-15 19:11:00,25.3,8.8,29.44,SSE,150,0.0,0.0,49,0.00,,---,0.00,VWS V12.08,2013-01-16 01:11:00,
2013-01-15 19:16:00,25.2,9.2,29.44,SSE,165,0.0,0.0,50,0.00,,---,0.00,VWS V12.08,2013-01-16 01:16:00,
2013-01-15 19:22:00,24.9,8.9,29.44,South,182,0.0,0.0,50,0.00,,---,0.00,VWS V12.08,2013-01-16 01:22:00,
2013-01-15 19:27:00,24.8,8.8,29.43,South,176,0.0,0.0,50,0.00,,---,0.00,VWS V12.08,2013-01-16 01:27:00,
2013-01-15 19:32:00,24.7,9.2,29.44,South,170,0.0,0.0,51,0.00,,---,0.00,VWS V12.08,2013-01-16 01:32:00,
2013-01-15 19:37:00,24.6,9.1,29.44,South,173,0.0,0.0,51,0.00,,---,0.00,VWS V12.08,2013-01-16 01:37:00,
2013-01-15 19:43:00,24.4,8.9,29.43,South,174,0.0,0.0,51,0.00,,---,0.00,VWS V12.08,2013-01-16 01:43:00,
2013-01-15 19:48:00,24.1,8.6,29.43,South,179,0.0,0.0,51,0.00,,---,0.00,VWS V12.08,2013-01-16 01:48:00,
2013-01-15 19:53:00,24.0,8.9,29.43,South,187,0.0,0.0,52,0.00,,---,0.00,VWS V12.08,2013-01-16 01:53:00,
2013-01-15 19:58:00,23.8,8.8,29.42,SSW,196,0.0,0.0,52,0.00,,---,0.00,VWS V12.08,2013-01-16 01:58:00,
2013-01-15 20:03:00,23.7,9.1,29.42,South,191,0.0,0.0,53,0.00,,---,0.00,VWS V12.08,2013-01-16 02:03:00,
2013-01-15 20:08:00,23.5,8.9,29.42,South,191,0.0,0.0,53,0.00,,---,0.00,VWS V12.08,2013-01-16 02:08:00,
2013-01-15 20:13:00,23.3,8.7,29.41,South,191,0.0,0.0,53,0.00,,---,0.00,VWS V12.08,2013-01-16 02:13:00,
2013-01-15 20:18:00,23.2,8.6,29.41,South,175,0.0,0.0,53,0.00,,---,0.00,VWS V12.08,2013-01-16 02:18:00,
2013-01-15 20:23:00,23.2,9.0,29.42,South,176,0.0,0.0,54,0.00,,---,0.00,VWS V12.08,2013-01-16 02:23:00,
2013-01-15 20:28:00,23.0,8.9,29.40,South,176,0.0,0.0,54,0.00,,---,0.00,VWS V12.08,2013-01-16 02:28:00,
2013-01-15 20:33:00,22.9,8.8,29.41,South,176,0.0,0.0,54,0.00,,---,0.00,VWS V12.08,2013-01-16 02:33:00,
2013-01-15 20:38:00,22.7,8.6,29.40,South,176,0.0,0.0,54,0.00,,---,0.00,VWS V12.08,2013-01-16 02:38:00,
2013-01-15 20:43:00,22.6,8.9,29.40,South,176,0.0,0.0,55,0.00,,---,0.00,VWS V12.08,2013-01-16 02:43:00,
2013-01-15 20:48:00,22.4,8.7,29.40,South,176,0.0,0.0,55,0.00,,---,0.00,VWS V12.08,2013-01-16 02:48:00,
2013-01-15 20:53:00,22.3,8.6,29.40,South,176,0.0,0.0,55,0.00,,---,0.00,VWS V12.08,2013-01-16 02:53:00,
2013-01-15 20:58:00,22.2,8.5,29.39,South,176,0.0,0.0,55,0.00,,---,0.00,VWS V12.08,2013-01-16 02:58:00,
2013-01-15 21:04:00,22.0,8.7,29.39,South,174,0.0,0.0,56,0.00,,---,0.00,VWS V12.08,2013-01-16 03:04:00,
2013-01-15 21:10:00,21.8,8.5,29.39,South,175,0.0,0.0,56,0.00,,---,0.00,VWS V12.08,2013-01-16 03:10:00,
2013-01-15 21:15:00,21.8,8.5,29.39,South,184,0.0,0.0,56,0.00,,---,0.00,VWS V12.08,2013-01-16 03:15:00,
2013-01-15 21:20:00,21.8,8.5,29.39,South,177,0.0,0.0,56,0.00,,---,0.00,VWS V12.08,2013-01-16 03:20:00,
2013-01-15 21:25:00,21.7,8.4,29.38,South,179,0.0,0.0,56,0.00,,---,0.00,VWS V12.08,2013-01-16 03:25:00,
2013-01-15 21:30:00,21.6,8.3,29.39,South,179,0.0,0.0,56,0.00,,---,0.00,VWS V12.08,2013-01-16 03:30:00,
2013-01-15 21:35:00,21.6,8.3,29.39,South,179,0.0,0.0,56,0.00,,---,0.00,VWS V12.08,2013-01-16 03:35:00,
2013-01-15 21:40:00,21.6,8.3,29.38,South,179,0.0,0.0,56,0.00,,---,0.00,VWS V12.08,2013-01-16 03:40:00,
2013-01-15 21:46:00,21.5,8.6,29.39,SSE,167,0.0,0.0,57,0.00,,---,0.00,VWS V12.08,2013-01-16 03:46:00,
2013-01-15 21:51:00,21.4,8.1,29.39,South,173,0.0,0.0,56,0.00,,---,0.00,VWS V12.08,2013-01-16 03:51:00,
2013-01-15 21:56:00,21.4,8.1,29.38,SSW,203,0.0,0.0,56,0.00,,---,0.00,VWS V12.08,2013-01-16 03:56:00,
2013-01-15 22:01:00,21.5,8.2,29.38,SSW,204,0.0,0.0,56,0.00,,---,0.00,VWS V12.08,2013-01-16 04:01:00,
2013-01-15 22:06:00,21.5,8.2,29.38,SSW,204,0.0,0.0,56,0.00,,---,0.00,VWS V12.08,2013-01-16 04:06:00,
2013-01-15 22:12:00,21.5,8.2,29.38,SSW,204,0.0,0.0,56,0.00,,---,0.00,VWS V12.08,2013-01-16 04:12:00,
2013-01-15 22:18:00,21.5,8.2,29.38,SW,227,0.0,0.0,56,0.00,,---,0.00,VWS V12.08,2013-01-16 04:18:00,
2013-01-15 22:23:00,21.4,8.6,29.38,SW,227,0.0,0.0,57,0.00,,---,0.00,VWS V12.08,2013-01-16 04:23:00,
2013-01-15 22:29:00,21.4,8.1,29.38,SW,229,0.0,0.0,56,0.00,,---,0.00,VWS V12.08,2013-01-16 04:29:00,
2013-01-15 22:34:00,21.4,8.1,29.37,SW,227,0.0,0.0,56,0.00,,---,0.00,VWS V12.08,2013-01-16 04:34:00,
2013-01-15 22:40:00,21.4,8.1,29.37,SW,217,0.0,0.0,56,0.00,,---,0.00,VWS V12.08,2013-01-16 04:40:00,
2013-01-15 22:45:00,21.3,8.1,29.37,SW,220,0.0,0.0,56,0.00,,---,0.00,VWS V12.08,2013-01-16 04:45:00,
2013-01-15 22:50:00,21.1,8.3,29.36,WSW,241,0.0,0.0,57,0.00,,---,0.00,VWS V12.08,2013-01-16 04:50:00,
2013-01-15 22:58:00,21.0,8.2,29.36,SSW,199,0.0,0.0,57,0.00,,---,0.00,VWS V12.08,2013-01-16 04:58:00,
2013-01-15 23:00:00,21.1,8.3,29.36,SSW,211,0.0,0.0,57,0.00,,---,0.00,VWS V12.08,2013-01-16 05:00:00,